Weather History for Lone Rock, WI

Change the Weather History Date:

Tuesday, November 8, 2011

  Actual Average Record
Temperature  
Mean Temperature 41 °F -  
Max Temperature 43 °F 46 °F 73 °F (1999)
Min Temperature 39 °F 29 °F 10 °F (2003)
Degree Days  
Heating Degree Days 24    
Moisture  
Dew Point 37 °F    
Average Humidity 85    
Maximum Humidity 93    
Minimum Humidity 70    
Precipitation  
Precipitation 0.89 in - - ()
Sea Level Pressure  
Sea Level Pressure 30.10 in    
Wind  
Wind Speed 7 mph (NE)    
Max Wind Speed 16 mph    
Max Gust Speed -    
Visibility 7 miles    
Events Rain    
Averages and records for this station are not official NWS values.
T = Trace of Precipitation, MM = Missing Value Source: NWS Daily Summary

Daily Weather History Graph

Daily Weather History Graph

Search for Another Location

Airport:

Trip Planner

Search our weather history database for the weather conditions in past years. The results will help you decide how hot, cold, wet, or windy it might be!

Date:

Astronomy

Nov. 08, 2011 Rise Set
Actual Time 6:44 AM CST 4:44 PM CST
Civil Twilight 6:14 AM CST 5:14 PM CST
Nautical Twilight 5:40 AM CST 5:48 PM CST
Astronomical Twilight 5:06 AM CST 6:21 PM CST
Moon 3:25 PM CST (11/8) 4:41 AM CST (11/8)
Length of Visible Light 10h 59m
Length of Day
9h 59m
Waxing Gibbous, 96% of the Moon is Illuminated
Nov 8
Waxing Gibbous
Nov 10
Full
Nov 18
Last Quarter
Nov 25
New
Dec 2
First Quarter

Hourly Weather History & Observations

Time (CST) Temp. Windchill Dew Point Humidity Pressure Visibility Wind Dir Wind Speed Gust Speed Precip Events Conditions
12:56 AM 42.1 °F - 36.0 °F 79% 30.19 in 10.0 mi Calm Calm - N/A   Overcast
1:43 AM 42.8 °F 38.0 °F 33.8 °F 70% 30.20 in 2.5 mi North 8.1 mph - 0.07 in Rain Rain
1:51 AM 39.2 °F 34.2 °F 33.8 °F 81% 30.19 in 3.0 mi North 6.9 mph - 0.10 in Rain Rain
1:56 AM 41.0 °F 35.8 °F 35.1 °F 79% 30.20 in 3.0 mi NNE 8.1 mph - 0.12 in Rain Rain
2:56 AM 39.9 °F 33.9 °F 36.0 °F 86% 30.17 in 4.0 mi NNE 9.2 mph - 0.18 in Rain Rain
3:56 AM 39.9 °F 33.4 °F 37.0 °F 89% 30.15 in 5.0 mi NE 10.4 mph - 0.16 in Rain Rain
4:56 AM 39.9 °F 35.8 °F 37.0 °F 89% 30.14 in 7.0 mi ESE 5.8 mph - 0.12 in Rain Light Rain
5:56 AM 39.9 °F - 37.0 °F 89% 30.12 in 9.0 mi Calm Calm - 0.04 in Rain Light Rain
6:23 AM 39.2 °F 35.9 °F 37.4 °F 93% 30.12 in 8.0 mi ESE 4.6 mph - 0.01 in Rain Light Rain
6:56 AM 39.0 °F 34.0 °F 37.0 °F 93% 30.13 in 6.0 mi East 6.9 mph - 0.03 in Rain Light Rain
7:56 AM 39.9 °F 35.1 °F 37.0 °F 89% 30.13 in 7.0 mi ENE 6.9 mph - 0.03 in Rain Light Rain
8:40 AM 39.2 °F 33.6 °F 37.4 °F 93% 30.12 in 2.5 mi ENE 8.1 mph - 0.04 in Rain Rain
8:51 AM 39.2 °F 37.0 °F 37.4 °F 93% 30.13 in 4.0 mi ENE 3.5 mph - 0.04 in Rain Light Rain
8:56 AM 39.9 °F 36.7 °F 37.9 °F 93% 30.13 in 4.0 mi ENE 4.6 mph - 0.04 in Rain Light Rain
9:01 AM 39.2 °F 34.2 °F 37.4 °F 93% 30.13 in 3.0 mi ENE 6.9 mph - 0.01 in Rain Light Rain
9:40 AM 41.0 °F 35.8 °F 37.4 °F 87% 30.11 in 6.0 mi ENE 8.1 mph - 0.01 in   Overcast
9:56 AM 41.0 °F 35.8 °F 37.0 °F 86% 30.11 in 10.0 mi NE 8.1 mph - 0.01 in   Overcast
10:05 AM 41.0 °F 34.3 °F 37.4 °F 87% 30.10 in 10.0 mi ENE 11.5 mph - N/A   Overcast
10:20 AM 41.0 °F 35.8 °F 37.4 °F 87% 30.12 in 10.0 mi ENE 8.1 mph - N/A   Overcast
10:56 AM 42.1 °F 34.2 °F 37.9 °F 85% 30.10 in 4.0 mi ENE 16.1 mph - 0.01 in Rain Light Rain
11:12 AM 42.8 °F 38.0 °F 37.4 °F 81% 30.09 in 6.0 mi ENE 8.1 mph - 0.00 in Rain Light Rain
11:56 AM 42.1 °F 37.7 °F 37.9 °F 85% 30.09 in 8.0 mi NNE 6.9 mph - 0.00 in Rain Light Rain
12:14 PM 42.8 °F 38.0 °F 37.4 °F 81% 30.08 in 9.0 mi NNE 8.1 mph - 0.00 in Rain Light Rain
12:37 PM 42.8 °F 37.5 °F 39.2 °F 87% 30.06 in 10.0 mi NE 9.2 mph - 0.00 in   Overcast
12:56 PM 43.0 °F 36.4 °F 37.9 °F 82% 30.06 in 10.0 mi NNE 12.7 mph - 0.00 in   Overcast
1:56 PM 43.0 °F 37.7 °F 37.9 °F 82% 30.05 in 10.0 mi NNE 9.2 mph - N/A   Overcast
2:03 PM 42.8 °F 37.0 °F 37.4 °F 81% 30.06 in 10.0 mi North 10.4 mph - N/A   Overcast
2:56 PM 43.0 °F 38.8 °F 37.9 °F 82% 30.06 in 10.0 mi NE 6.9 mph - N/A   Overcast
3:56 PM 43.0 °F 38.2 °F 37.9 °F 82% 30.07 in 10.0 mi NNE 8.1 mph - N/A   Overcast
4:56 PM 43.0 °F 36.4 °F 37.9 °F 82% 30.05 in 10.0 mi NNE 12.7 mph - N/A   Overcast
5:30 PM 42.8 °F 36.6 °F 37.4 °F 81% 30.05 in 10.0 mi NE 11.5 mph - N/A   Overcast
5:56 PM 43.0 °F 38.8 °F 37.9 °F 82% 30.06 in 10.0 mi NE 6.9 mph - N/A   Overcast
6:56 PM 43.0 °F 36.8 °F 37.0 °F 80% 30.08 in 10.0 mi NE 11.5 mph - N/A   Overcast
7:56 PM 42.1 °F 36.1 °F 37.9 °F 85% 30.07 in 9.0 mi NE 10.4 mph - 0.01 in Rain Light Rain
8:19 PM 42.8 °F 39.3 °F 37.4 °F 81% 30.07 in 9.0 mi NE 5.8 mph - 0.01 in Rain Light Rain
9:40 PM 42.8 °F 37.5 °F 37.4 °F 81% 30.05 in 6.0 mi NNE 9.2 mph - 0.10 in Rain Light Rain
9:56 PM 42.1 °F 36.6 °F 37.9 °F 85% 30.04 in 6.0 mi NNE 9.2 mph - 0.11 in Rain Light Rain
10:52 PM 41.0 °F 34.7 °F 37.4 °F 87% 30.01 in 5.0 mi NNE 10.4 mph - 0.03 in Rain Light Rain
10:56 PM 41.0 °F 33.9 °F 37.9 °F 89% 30.01 in 5.0 mi NNE 12.7 mph - 0.03 in Rain Light Rain
11:56 PM 41.0 °F 34.3 °F 37.9 °F 89% 29.99 in 6.0 mi NNE 11.5 mph - 0.00 in   Overcast